Showing default

NINGXIA-1 8, 49020

Orbit data source: Space-Track

NINGXIA-1 8, 49020 is a Chinese payload satellite in LEO that was launched on Fri, 09 Jul 2021 UTC via a CHANG ZHENG 6 launch vehicle from the Taiyaun Space Center, China (TSC). Payload-class satellites include a variety of spacecraft equipped with specific instruments for various scientific and technological missions. These include communications satellites like Starlink; space stations such as the ISS; scientific satellites like the Hubble; Earth observation satellites from companies like Planet Labs, Umbra, and HawkEye 360; GPS; miniature CubeSats for education and research; and military/defense satellites.

Loading next visibility...
Identifier
49020, 2021-064C
Orbit
LEO
Country
Flag of CNCN / PRC
Related business
Manufacturer
DFH
Mission
Operational Commercial Sigint
Bus & Motor
NX-1, Unknown motor
Mass
~100 kg wet, ~100 kg dry
Launch date (UTC)
2021-07-09 (5 years ago)
Launch vehicle
CHANG ZHENG 6
Launch site
Taiyaun Space Center, China (TSC)
Object type
Payload
Rocket body
Debris
Shape & HBR
Box + 2 Pan, 0.5 m
Radar Cross Section
0.166 m², Medium (>0.1 m² and < 1m²)

Expand to show TLE details & history
Last TLE update: 15 hours ago

TLE from 15 hours ago
0 NINGXIA-1 8
1 49020U 21064C   26171.50994024 -.00000121  00000-0  63674-5 0  9994
2 49020  44.9928 211.0292 0009025 261.8382  98.1431 14.08537088254692
Epoch: 2026-06-20T12:14Z
TLE epoch observation values (Epoch: 2026-06-20T12:14:18.836Z)
Latitude
-0.00002°
Longitude
118.72717°
Altitude
865.312 km
Speed
7.421 km/s
True Right ascension
14h 04m 07s
True Declination
0° 00' 00"
Sunlit
Object was in full shadow at epoch
Visualization orbit readout
Latitude
Unknown
Longitude
Unknown
Altitude
Unknown
Speed
Unknown
Apparent Right ascension
Unknown
Apparent Declination
Unknown
Sunlit
N/A
Visualization observer readout
Local Sidereal Time
14:10:58
Azimuth
Unknown
Elevation
Unknown
Doppler factor
Unknown
Orbital elements
Apogee altitude
872.446 km
Perigee altitude
859.37 km
Semi-major axis
7,244.045 km
Eccentricity
0.0009
Inclination
44.9928°
RAAN
211.0292°
Arg. of periapsis
261.8382°
True anomaly
98.24546°
Mean anomaly
98.1431°
Eccentric anomaly
98.19428°
Mean motion
3.52023 °/min
Orbital period
102.27 mins
BSTAR
0.0000063674
Loading maneuver chart data...
Computing Atmospheric mass density...
Loading historical data...
Loading historical data...
Loading historical data...
Loading historical data...
Loading historical data...
Loading historical data...
Loading historical data...
Other satellites on launch #64 in the year 2021 (2021-07-09 UTC)

Documentation

Showing up to 5 results
|